Miscellaneous Local Product
Issued by NWS North Platte, NE

Home | Current Version | Previous Version | Graphics & Text | Print | Product List | Glossary On
Versions: 1 2 3 4 5 6 7 8 9 10 11 12 13 14 15 16 17 18 19 20 21 22 23 24 25 26 27 28 29 30 31 32 33 34 35 36 37 38 39 40 41 42 43 44 45 46 47 48 49 50
000
AXUS43 KLBF 241810
MISLBF


WESTERN AND NORTH CENTRAL NEBRASKA HOURLY WEATHER ROUNDUP
NATIONAL WEATHER SERVICE NORTH PLATTE NE
100 PM CDT WED MAY 24 2017

NOTE: "FAIR" INDICATES FEW OR NO CLOUDS BELOW 12,000 FEET WITH NO
SIGNIFICANT WEATHER AND/OR OBSTRUCTIONS TO VISIBILITY.

NOTE: STATIONS NOT REPORTING VARIABLES SUCH AS SKY/WEATHER OR
PRESSURE ARE PROVIDED BY RAWS AND APRS NETWORKS AND ARE NOT UNDER
NATIONAL WEATHER SERVICE QUALITY CONTROL.

...OBSERVATIONS IN AND NEAR THE EASTERN PANHANDLE OF NEBRASKA...

CITY           SKY/WX    TMP DP  RH WIND       PRES   REMARKS
PINE RIDGE     SUNNY     68  44  42 S17G24    29.62F
GORDON         FAIR      65  40  39 S14G20    29.65F
CHADRON        SUNNY     69  44  40 S15       29.59F
ALLIANCE       SUNNY     67  42  40 S18G25    29.66F
SIDNEY         SUNNY     66  45  46 SW15      29.71F
CRESCENT LAKE    N/A     65  41  41 S9G16       N/A
$$

...OBSERVATIONS IN NORTHERN NEBRASKA AND FAR SOUTHERN SOUTH DAKOTA...

CITY           SKY/WX    TMP DP  RH WIND       PRES   REMARKS
WINNER         FAIR      62  45  53 S14       29.71F
VALENTINE      SUNNY     63  37  38 SE14G20   29.70F
THEDFORD       SUNNY     62  37  39 S7        29.73F
AINSWORTH      SUNNY     60  44  56 SE8       29.72F
O`NEILL        PTSUNNY   59  41  52 S5        29.74F
BROKEN BOW     SUNNY     58  41  53 E8        29.75F
VALENTINE NWR    N/A     60  38  44 S6          N/A
HALSEY           N/A     60  37  42 SE7         N/A
BUTTE            N/A     57  44  62 MISG        N/A
CHAMBERS         N/A     64  44  49 S3          N/A
EWING            N/A     59  45  58 SE3         N/A
$$

...OBSERVATIONS IN SOUTHWEST NEBRASKA AND FAR NORTHEAST COLORADO...

CITY           SKY/WX    TMP DP  RH WIND       PRES   REMARKS
WRAY           FAIR      68  39  34 SE12      29.74F
IMPERIAL       SUNNY     64  41  42 S10       29.74F
OGALLALA       SUNNY     66  39  37 S9G16     29.72F
NORTH PLATTE   SUNNY     61  37  41 E3        29.74F
MCCOOK         SUNNY     63  36  36 SW6       29.77F
LEXINGTON      SUNNY     59  43  55 S7        29.77F
STAPLETON        N/A     63  41  43 CALM        N/A
GOTHENBURG       N/A     59  37  44 CALM        N/A
CALLAWAY         N/A     58  42  56 S5          N/A
$$

...OBSERVATIONS IN CENTRAL LINCOLN COUNTY AREA...

CITY           SKY/WX    TMP DP  RH WIND       PRES   REMARKS
N.P. AIRPORT   SUNNY     61  37  41 E3        29.74F
N.P. DOWNTOWN    N/A     62  41  46 CALM        N/A
N.P. SOUTHEAST   N/A     63  39  41 CALM        N/A
N.P. HILLCREST   N/A     62  42  48 S3          N/A
$$

...SOME OBSERVATIONS FROM AROUND THE REGION...

CITY           SKY/WX    TMP DP  RH WIND       PRES   REMARKS
DENVER         MOSUNNY   77  34  21 W21       29.74F
LIMON          SUNNY     73  37  27 MISG      29.78F
ASPEN          SUNNY     66  33  29 N12G21    29.99F
LARAMIE        SUNNY     69  31  24 W25G37    29.81F
CASPER         SUNNY     75  41  29 SW20      29.62F
CHEYENNE       SUNNY     73  32  22 W25G37    29.74F
SCOTTSBLUFF    SUNNY     72  45  37 SE6       29.64F
GRAND ISLAND   SUNNY     59  42  53 CALM      29.76F
OMAHA          MOSUNNY   64  46  52 NW12G21   29.72F
SIOUX FALLS    PTSUNNY   59  46  62 CALM      29.74F
PIERRE         SUNNY     62  41  46 S12G24    29.66F
RAPID CITY     SUNNY     68  42  38 S22G30    29.57F
BISMARCK       SUNNY     65  40  39 S21G31    29.61F
KANSAS CITY    CLOUDY    61  49  64 N14       29.69F
HILL CITY      SUNNY     60  40  47 VRB3      29.79F
WICHITA        PTSUNNY   62  44  51 NW14G20   29.79F
DODGE CITY     SUNNY     64  41  42 VRB7      29.81F
OKLAHOMA CITY  MOSUNNY   67  42  40 N17G26    29.81F
DALLAS         MOSUNNY   76  41  28 NW20G29   29.82F
AMARILLO       SUNNY     77  37  23 SW15G24   29.84F
$$




USA.gov is the U.S. government's official web portal to all federal, state and local government web resources and services.